When you browse on this site, cookies collect data to enhance your experience and personalize the content and advertising you see.
Visit our Privacy Policy to learn more. By continuing to use the site, you agree to this use of cookies and data.
  • In Germany
  • List of Countries
  • For 7 days
  • Water Temperature
  • Weather Map
  • Weather Widgets
  • user-avatar
    Login

    Hourly Weather Yulara

    Today, 5 June, Friday

    Time Temperature Precipitation Wind Pressure Humidity
    00:00 +8°C° 0 mm 4 mps 724 mmHg 57%
    01:00 +7°C° 0 mm 4 mps 723 mmHg 62%
    02:00 +7°C° 0 mm 4 mps 723 mmHg 67%
    03:00 +7°C° 0 mm 3 mps 723 mmHg 72%
    04:00 +5°C° 0 mm 3 mps 723 mmHg 76%
    05:00 +5°C° 0 mm 3 mps 724 mmHg 79%
    06:00 +5°C° 0 mm 3 mps 724 mmHg 82%
    07:00 +7°C° 0 mm 4 mps 724 mmHg 76%
    08:00 +8°C° 0 mm 4 mps 725 mmHg 70%
    09:00 +10°C° 0 mm 5 mps 725 mmHg 65%
    10:00 +13°C° 0 mm 5 mps 725 mmHg 56%
    11:00 +15°C° 0 mm 5 mps 724 mmHg 47%
    12:00 +17°C° 0 mm 5 mps 724 mmHg 39%
    13:00 +19°C° 0 mm 4 mps 723 mmHg 35%
    14:00 +20°C° 0 mm 4 mps 723 mmHg 31%
    15:00 +21°C° 0 mm 4 mps 722 mmHg 27%
    16:00 +19°C° 0 mm 4 mps 722 mmHg 31%
    17:00 +17°C° 0 mm 4 mps 722 mmHg 34%
    18:00 +14°C° 0 mm 4 mps 722 mmHg 38%
    19:00 +13°C° 0 mm 4 mps 722 mmHg 40%
    20:00 +12°C° 0 mm 4 mps 723 mmHg 42%
    21:00 +11°C° 0 mm 4 mps 723 mmHg 44%
    22:00 +11°C° 0 mm 4 mps 723 mmHg 47%
    23:00 +10°C° 0 mm 4 mps 723 mmHg 49%

    Tomorrow, 6 June, Saturday

    Time Temperature Precipitation Wind Pressure Humidity
    00:00 +8°C° 0 mm 4 mps 723 mmHg 51%
    01:00 +7°C° 0 mm 4 mps 722 mmHg 53%
    02:00 +6°C° 0 mm 4 mps 722 mmHg 55%
    03:00 +6°C° 0 mm 4 mps 722 mmHg 58%
    04:00 +5°C° 0 mm 4 mps 722 mmHg 59%
    05:00 +5°C° 0 mm 3 mps 722 mmHg 61%
    06:00 +4°C° 0 mm 3 mps 723 mmHg 63%
    07:00 +7°C° 0 mm 3 mps 723 mmHg 55%
    08:00 +8°C° 0 mm 4 mps 723 mmHg 48%
    09:00 +11°C° 0 mm 4 mps 723 mmHg 41%
    10:00 +13°C° 0 mm 4 mps 723 mmHg 36%
    11:00 +17°C° 0 mm 4 mps 723 mmHg 30%
    12:00 +19°C° 0 mm 4 mps 723 mmHg 25%
    13:00 +20°C° 0 mm 4 mps 722 mmHg 23%
    14:00 +21°C° 0 mm 4 mps 722 mmHg 20%
    15:00 +21°C° 0 mm 4 mps 721 mmHg 18%
    16:00 +19°C° 0 mm 4 mps 721 mmHg 22%
    17:00 +17°C° 0 mm 4 mps 721 mmHg 25%
    18:00 +14°C° 0 mm 3 mps 721 mmHg 28%
    19:00 +13°C° 0 mm 4 mps 722 mmHg 31%
    20:00 +12°C° 0 mm 4 mps 722 mmHg 33%
    21:00 +9°C° 0 mm 5 mps 722 mmHg 35%
    22:00 +9°C° 0 mm 5 mps 722 mmHg 37%
    23:00 +8°C° 0 mm 5 mps 722 mmHg 38%

    Day after tomorrow, 7 June, Sunday

    Time Temperature Precipitation Wind Pressure Humidity
    00:00 +7°C° 0 mm 5 mps 722 mmHg 40%
    01:00 +7°C° 0 mm 5 mps 722 mmHg 43%
    02:00 +6°C° 0 mm 5 mps 722 mmHg 47%
    03:00 +6°C° 0 mm 5 mps 722 mmHg 50%
    04:00 +5°C° 0 mm 5 mps 722 mmHg 56%
    05:00 +5°C° 0 mm 5 mps 722 mmHg 62%
    06:00 +3°C° 0 mm 5 mps 723 mmHg 68%
    07:00 +6°C° 0 mm 5 mps 723 mmHg 66%
    08:00 +8°C° 0 mm 6 mps 723 mmHg 64%
    09:00 +9°C° 0 mm 7 mps 723 mmHg 62%
    10:00 +12°C° 0 mm 7 mps 723 mmHg 52%
    11:00 +15°C° 0 mm 7 mps 722 mmHg 42%
    12:00 +17°C° 0 mm 7 mps 722 mmHg 33%
    13:00 +19°C° 0 mm 6 mps 721 mmHg 30%
    14:00 +20°C° 0 mm 6 mps 721 mmHg 27%
    15:00 +21°C° 0 mm 6 mps 720 mmHg 24%
    16:00 +17°C° 0 mm 5 mps 720 mmHg 29%
    17:00 +15°C° 0 mm 5 mps 720 mmHg 33%
    18:00 +13°C° 0 mm 4 mps 721 mmHg 37%
    19:00 +12°C° 0 mm 4 mps 721 mmHg 41%
    20:00 +11°C° 0 mm 4 mps 721 mmHg 46%
    21:00 +9°C° 0 mm 5 mps 722 mmHg 50%
    22:00 +9°C° 0 mm 5 mps 722 mmHg 54%
    23:00 +8°C° 0 mm 5 mps 722 mmHg 57%

    8 June, Monday

    Time Temperature Precipitation Wind Pressure Humidity
    00:00 +7°C° 0 mm 5 mps 723 mmHg 61%
    01:00 +6°C° 0 mm 5 mps 722 mmHg 64%
    02:00 +6°C° 0 mm 5 mps 722 mmHg 68%
    03:00 +5°C° 0 mm 5 mps 722 mmHg 71%
    04:00 +5°C° 0 mm 5 mps 722 mmHg 72%
    05:00 +4°C° 0 mm 4 mps 722 mmHg 74%
    06:00 +4°C° 0 mm 4 mps 722 mmHg 76%
    07:00 +5°C° 0 mm 5 mps 723 mmHg 68%
    08:00 +7°C° 0 mm 5 mps 723 mmHg 60%
    09:00 +9°C° 0 mm 6 mps 723 mmHg 51%
    10:00 +11°C° 0 mm 6 mps 723 mmHg 44%
    11:00 +15°C° 0 mm 6 mps 723 mmHg 37%
    12:00 +17°C° 0 mm 6 mps 722 mmHg 29%
    13:00 +19°C° 0 mm 5 mps 722 mmHg 26%
    14:00 +20°C° 0 mm 5 mps 721 mmHg 24%
    15:00 +21°C° 0 mm 4 mps 721 mmHg 21%
    16:00 +19°C° 0 mm 4 mps 721 mmHg 25%
    17:00 +16°C° 0 mm 3 mps 721 mmHg 29%
    18:00 +13°C° 0 mm 3 mps 720 mmHg 33%
    19:00 +12°C° 0 mm 3 mps 721 mmHg 37%
    20:00 +12°C° 0 mm 4 mps 721 mmHg 41%
    21:00 +11°C° 0 mm 4 mps 722 mmHg 45%
    22:00 +10°C° 0 mm 4 mps 722 mmHg 48%
    23:00 +8°C° 0 mm 4 mps 722 mmHg 51%

    9 June, Tuesday

    Time Temperature Precipitation Wind Pressure Humidity
    00:00 +8°C° 0 mm 4 mps 722 mmHg 54%
    01:00 +7°C° 0 mm 4 mps 722 mmHg 56%
    02:00 +7°C° 0 mm 4 mps 722 mmHg 57%
    03:00 +6°C° 0 mm 4 mps 722 mmHg 59%
    04:00 +6°C° 0 mm 4 mps 723 mmHg 60%
    05:00 +5°C° 0 mm 4 mps 723 mmHg 62%
    06:00 +5°C° 0 mm 4 mps 723 mmHg 64%
    07:00 +7°C° 0 mm 4 mps 723 mmHg 57%
    08:00 +10°C° 0 mm 4 mps 724 mmHg 51%
    09:00 +10°C° 0 mm 5 mps 724 mmHg 44%
    10:00 +14°C° 0 mm 4 mps 724 mmHg 40%
    11:00 +17°C° 0 mm 4 mps 723 mmHg 35%
    12:00 +19°C° 0 mm 4 mps 723 mmHg 31%
    13:00 +20°C° 0 mm 3 mps 723 mmHg 29%
    14:00 +21°C° 0 mm 2 mps 722 mmHg 28%
    15:00 +23°C° 0 mm 1 mps 721 mmHg 26%
    16:00 +20°C° 0 mm 2 mps 721 mmHg 30%
    17:00 +17°C° 0 mm 2 mps 721 mmHg 34%
    18:00 +14°C° 0 mm 3 mps 721 mmHg 38%
    19:00 +13°C° 0 mm 3 mps 722 mmHg 40%
    20:00 +13°C° 0 mm 3 mps 722 mmHg 42%
    21:00 +12°C° 0 mm 3 mps 723 mmHg 44%
    22:00 +11°C° 0 mm 3 mps 723 mmHg 47%
    23:00 +10°C° 0 mm 3 mps 723 mmHg 50%

    10 June, Wednesday

    Time Temperature Precipitation Wind Pressure Humidity
    00:00 +10°C° 0 mm 3 mps 723 mmHg 53%
    01:00 +9°C° 0 mm 3 mps 723 mmHg 56%
    02:00 +8°C° 0 mm 3 mps 723 mmHg 58%
    03:00 +7°C° 0 mm 3 mps 722 mmHg 60%
    04:00 +7°C° 0 mm 3 mps 723 mmHg 62%
    05:00 +5°C° 0 mm 3 mps 723 mmHg 63%
    06:00 +5°C° 0 mm 3 mps 723 mmHg 64%
    07:00 +8°C° 0 mm 3 mps 723 mmHg 57%
    08:00 +10°C° 0 mm 3 mps 724 mmHg 50%
    09:00 +12°C° 0 mm 3 mps 724 mmHg 43%
    10:00 +14°C° 0 mm 3 mps 724 mmHg 37%
    11:00 +18°C° 0 mm 3 mps 723 mmHg 32%
    12:00 +20°C° 0 mm 3 mps 723 mmHg 26%
    13:00 +21°C° 0 mm 2 mps 723 mmHg 25%
    14:00 +23°C° 0 mm 2 mps 722 mmHg 23%
    15:00 +23°C° 0 mm 2 mps 722 mmHg 21%
    16:00 +20°C° 0 mm 2 mps 722 mmHg 24%
    17:00 +17°C° 0 mm 2 mps 722 mmHg 28%
    18:00 +14°C° 0 mm 3 mps 721 mmHg 32%
    19:00 +13°C° 0 mm 3 mps 722 mmHg 34%
    20:00 +13°C° 0 mm 3 mps 722 mmHg 36%
    21:00 +12°C° 0 mm 3 mps 723 mmHg 38%
    22:00 +11°C° 0 mm 3 mps 722 mmHg 39%
    23:00 +11°C° 0 mm 3 mps 722 mmHg 41%
    Show more